Location: Ripley
(48.3812°N, 115.4473°W)
Time: 13:31:26
(UTC+00:00)

CAS-6 - Pass Details

Date: 28 June 2022
Orbit: 613 x 634 km, 97.9° (Epoch: 19 August)

Event Time Altitude Azimuth Distance (km) Brightness Sun altitude
Exits shadow 04:30:38 - 112° (ESE) 2,396 ? -6.2°
Reaches altitude 10° 04:31:56 10° 101° (ESE) 2,007 ? -6.3°
Maximum altitude 04:34:47 17° 60° (ENE) 1,579 ? -6.7°
Drops below altitude 10° 04:37:38 10° 20° (NNE) 2,009 ? -7.0°
Sets 04:40:26 0° 0° (N) 2,916 ? -7.3°
